Weather History for Klamath Falls, OR

Change the Weather History Date:

Wednesday, September 10, 2014

  Actual Average Record
Temperature  
Mean Temperature 60 °F 59 °F  
Max Temperature 83 °F 78 °F 91 °F (1953)
Min Temperature 36 °F 41 °F 27 °F (2010)
Degree Days  
Heating Degree Days 5 6  
Month to date heating degree days 40 54  
Since 1 July heating degree days 88 173  
Cooling Degree Days 0 0  
Month to date cooling degree days 0 9  
Year to date cooling degree days 321 168  
Growing Degree Days 10 (Base 50)    
Moisture  
Dew Point 34 °F    
Average Humidity 44    
Maximum Humidity 85    
Minimum Humidity 13    
Precipitation  
Precipitation 0.00 in 0.02 in 0.36 in (1952)
Month to date precipitation 0.00 0.19  
Year to date precipitation 7.51 9.93  
Sea Level Pressure  
Sea Level Pressure 30.05 in    
Wind  
Wind Speed 4 mph (NE)    
Max Wind Speed 15 mph    
Max Gust Speed 21 mph    
Visibility 10 miles    
Events      
T = Trace of Precipitation, MM = Missing Value Source: NWS Daily Summary

Daily Weather History Graph

Daily Weather History Graph

Search for Another Location

Airport:

Trip Planner

Search our weather history database for the weather conditions in past years. The results will help you decide how hot, cold, wet, or windy it might be!

Date:

Astronomy

Sep. 10, 2014 Rise Set
Actual Time 6:41 AM PDT 7:25 PM PDT
Civil Twilight 6:13 AM PDT 7:53 PM PDT
Nautical Twilight 5:39 AM PDT 8:26 PM PDT
Astronomical Twilight 5:05 AM PDT 9:01 PM PDT
Moon 8:24 PM PDT (9/10) 8:38 AM PDT (9/10)
Length of Visible Light 13h 39m
Length of Day
12h 43m
Waning Gibbous, 96% of the Moon is Illuminated
Sep 10
Waning Gibbous
Sep 15
Last Quarter
Sep 23
New
Oct 1
First Quarter
Oct 8
Full

Hourly Weather History & Observations

Time (PDT) Temp. Windchill Dew Point Humidity Pressure Visibility Wind Dir Wind Speed Gust Speed Precip Events Conditions
12:53 AM 45.0 °F - 36.0 °F 71% 30.08 in 10.0 mi Calm Calm - N/A   Clear
1:53 AM 44.1 °F - 34.0 °F 68% 30.07 in 10.0 mi Calm Calm - N/A   Clear
3:53 AM 42.1 °F 40.2 °F 37.0 °F 82% 30.08 in 10.0 mi East 3.5 mph - N/A   Clear
4:53 AM 39.9 °F - 34.0 °F 79% 30.09 in 10.0 mi Calm Calm - N/A   Clear
5:53 AM 37.0 °F - 32.0 °F 82% 30.10 in 10.0 mi Calm Calm - N/A   Clear
6:53 AM 37.0 °F - 33.1 °F 86% 30.12 in 10.0 mi Calm Calm - N/A   Clear
7:53 AM 45.0 °F - 37.0 °F 74% 30.13 in 10.0 mi Calm Calm - N/A   Clear
8:53 AM 54.0 °F - 39.0 °F 57% 30.12 in 10.0 mi Calm Calm - N/A   Clear
9:53 AM 61.0 °F - 39.0 °F 44% 30.13 in 10.0 mi Variable 3.5 mph - N/A   Clear
10:53 AM 66.0 °F - 37.0 °F 34% 30.10 in 10.0 mi Variable 3.5 mph - N/A   Clear
11:53 AM 71.1 °F - 33.1 °F 25% 30.09 in 10.0 mi ESE 4.6 mph - N/A   Clear
12:53 PM 73.9 °F - 28.9 °F 19% 30.08 in 10.0 mi SSW 4.6 mph - N/A   Clear
1:53 PM 78.1 °F - 30.0 °F 17% 30.05 in 10.0 mi Variable 4.6 mph - N/A   Clear
2:53 PM 78.1 °F - 24.1 °F 14% 30.04 in 10.0 mi Calm Calm - N/A   Clear
3:53 PM 80.1 °F - 25.0 °F 13% 30.02 in 10.0 mi WSW 8.1 mph - N/A   Clear
4:53 PM 82.0 °F - 26.1 °F 13% 29.99 in 10.0 mi Variable 4.6 mph - N/A   Clear
5:53 PM 81.0 °F - 28.0 °F 14% 29.98 in 10.0 mi South 6.9 mph - N/A   Clear
6:53 PM 78.1 °F - 33.1 °F 19% 29.98 in 10.0 mi Calm Calm - N/A   Clear
7:53 PM 68.0 °F - 37.0 °F 32% 29.99 in 10.0 mi Calm Calm - N/A   Clear
8:53 PM 71.1 °F - 37.0 °F 29% 29.98 in 10.0 mi NW 11.5 mph - N/A   Clear
9:53 PM 62.1 °F - 39.0 °F 43% 30.00 in 10.0 mi NNW 3.5 mph - N/A   Clear
10:53 PM 66.0 °F - 37.9 °F 36% 30.00 in 10.0 mi NE 4.6 mph - N/A   Clear
11:53 PM 55.9 °F - 37.9 °F 51% 30.01 in 10.0 mi NNE 4.6 mph - N/A   Clear